Location: Logan
(41.7360°N, 111.8340°W)
Time: 19:22:29
(UTC-06:00)

Daily predictions for brighter satellites

Satellite Brightness Start Highest point End
(mag) Time Altitude Azimuth Time Altitude Azimuth Time Altitude Azimuth
Cosmos 2112 Rocket 4.5 21:23:50 10° SSW 21:29:01 68° WNW 21:34:12 10° NNE
SL-27 R/B 3.5 21:25:53 10° SSW 21:29:28 53° WNW 21:33:02 10° N
Cosmos 1437 Rocket 3.2 21:28:55 10° N 21:32:37 42° ENE 21:36:22 10° SSE
USA 186 3.2 21:31:10 10° SSW 21:34:05 35° W 21:36:55 10° NNW
Cosmos 1624 Rocket 4.1 21:29:50 10° NNW 21:35:07 67° ENE 21:40:24 10° SSE
Meteor 2-4 Rocket 3.9 21:32:56 10° S 21:38:39 84° W 21:44:32 10° N
CZ-4B DEB 2.5 21:37:44 10° SSE 21:40:43 87° ENE 21:43:43 10° NNW
Cosmos 1939 Rocket 2.8 21:37:48 10° SSE 21:41:40 85° W 21:45:34 10° NNW
Cosmos 1980 Rocket 3.9 21:43:33 10° N 21:47:41 20° NE 21:51:47 10° E
ARGOS 4.1 21:43:31 10° SE 21:48:14 33° ENE 21:53:03 10° N
Cosmos 2341 Rocket 4.3 21:43:46 10° N 21:50:02 55° E 21:56:16 10° SSE
H-2A R/B 3.5 21:47:26 10° ESE 21:51:10 21° ENE 21:54:57 10° NNE
Cosmos 2058 Rocket 3.8 21:47:39 10° N 21:51:47 37° ENE 21:55:20 13° SE
Envisat 3.7 21:49:12 10° S 21:54:09 55° W 21:59:10 10° NNW
NOSS 8 (F) 4.4 21:51:27 10° SSW 21:54:58 81° SE 21:58:35 10° NE
Cosmos 2056 Rocket 3.5 21:49:50 10° NNW 21:55:00 88° WSW 22:00:07 10° SSE
Cosmos 1441 Rocket 4.5 21:51:44 10° SSW 21:55:17 42° WNW 21:58:52 10° N
SPOT 5 3.5 21:55:53 14° SE 21:59:05 33° ENE 22:03:02 10° N
SAR-Lupe-4 4.4 21:56:17 10° S 21:59:45 48° W 22:03:16 10° NNW
MetOp-B 4.4 21:56:34 12° SE 22:01:18 54° ENE 22:06:31 10° N
Meteor 1-4 Rocket 3.9 22:02:44 10° NNE 22:05:41 24° ENE 22:07:21 17° ESE
ISS -1.0 22:04:38 10° WNW 22:07:11 20° NNW 22:09:46 10° NE
NOAA 11 4.2 22:03:03 13° SSE 22:07:59 68° ENE 22:13:23 10° N
H-2A R/B 4.3 22:05:51 10° E 22:08:09 14° ENE 22:10:26 10° NNE
YAOGAN 6 3.0 22:05:35 10° S 22:09:02 59° W 22:12:32 10° NNW
Resurs 01 Rocket 4.5 22:14:32 10° WSW 22:16:22 12° W 22:18:13 10° WNW
Cosmos 1626 Rocket 4.5 22:15:04 20° SE 22:17:09 29° E 22:20:54 10° NNE
Cosmos 2181 Rocket 4.0 22:11:29 10° S 22:17:49 75° E 22:24:05 10° N
COSMOS 2487 2.6 22:14:15 10° SSW 22:17:49 79° WNW 22:21:24 10° NNE
Helios 1B rocket 4.4 22:16:40 10° N 22:20:20 31° WNW 22:24:00 10° SW
Cosmos 921 Rocket 3.3 22:18:18 10° NNW 22:22:45 67° WSW 22:26:09 16° S
Cosmos 2228 3.0 22:18:52 10° N 22:23:09 69° E 22:25:55 21° SSE
Lacrosse 5 rocket 3.9 22:22:06 10° NNW 22:25:17 18° NNE 22:28:29 10° ENE
ERS-1 Rocket 3.3 22:21:26 12° S 22:26:04 66° WSW 22:31:05 10° NNW
Cosmos 2082 Rocket 2.1 22:20:57 10° SSW 22:26:37 79° ESE 22:32:17 10° NNE
Cosmos 1452 Rocket 3.5 22:21:25 10° NNW 22:26:43 73° ENE 22:30:11 22° SSE
Cosmos 2278 4.0 22:24:07 10° NNW 22:29:46 65° WSW 22:34:07 17° S
Cosmos 1656 3.7 22:31:07 10° NNW 22:36:35 80° WSW 22:40:11 22° SSE
TELKOM 3 3.6 22:35:33 10° WNW 22:37:53 51° SSW 22:38:25 43° S
Cosmos 1697 Rocket 2.6 22:36:53 10° NNW 22:42:32 82° ENE 22:45:47 26° SSE
SPOT 1/Viking Rocket 3.6 22:39:42 25° SSE 22:42:44 70° ENE 22:47:52 10° N
Iridium 43 3.8 22:41:52 10° N 22:44:06 59° W 22:44:23 53° SW
Tiangong 2 1.0 22:42:36 10° W 22:45:48 88° N 22:46:43 43° E
SL-8 Rocket 4.0 22:43:16 10° N 22:49:34 84° W 22:54:04 20° S
Meteor 1-22 Rocket 4.1 22:45:54 10° N 22:51:14 69° E 22:54:02 29° SSE
Cosmos 1602 Rocket 3.4 22:51:11 30° S 22:53:15 72° E 22:57:34 10° NNE
SL-16 R/B 3.8 22:49:46 10° N 22:54:20 24° NE 22:57:26 16° E
Cosmos 468 4.5 22:49:40 10° SSW 22:54:55 89° W 23:00:16 10° NNE
Cosmos 2366 rocket 3.9 22:50:56 10° N 22:57:07 83° E 23:00:43 27° S
Cosmos 1833 Rocket 3.1 22:51:37 10° SW 22:57:11 65° WNW 23:02:48 10° NNE
Cosmos 158 Rocket 4.0 22:54:43 23° S 22:57:57 64° ESE 23:03:17 10° NNE
USA 229 DEB 3.9 22:52:27 10° NNW 22:59:37 73° NE 23:03:48 28° SE
USA 229 3.9 22:52:33 10° NNW 22:59:43 72° NE 23:03:54 28° SE
Cosmos 1544 3.9 22:57:13 10° N 23:00:33 33° ENE 23:00:49 33° E
Cosmos 1271 Rocket 3.1 22:59:15 10° N 23:03:04 48° ENE 23:03:47 42° ESE
Landsat 7 3.8 23:02:06 36° SSE 23:04:01 74° ENE 23:08:47 10° N
Cosmos 1842 3.6 23:04:03 44° ESE 23:04:30 46° E 23:08:17 10° NNE
deb Chang Zheng 4 3.9 23:07:15 10° NNE 23:11:23 43° E 23:11:49 42° ESE
CZ-4B R/B 4.2 23:08:59 10° NNE 23:13:40 35° E 23:14:24 33° ESE
Meteor 2-14 Rocket 4.4 23:07:45 10° N 23:13:51 87° E 23:16:48 33° S
Orbus 7S? 4.4 23:07:49 10° NW 23:14:37 49° NNE 23:16:10 31° E
IGS 5A 3.5 23:16:14 51° SE 23:17:04 64° ENE 23:21:13 10° N
ATLAS CENTAUR R/B 2.6 23:14:52 10° N 23:17:58 25° NE 23:18:44 23° ENE
Terra 1.8 23:17:37 44° SSE 23:19:03 73° ENE 23:23:49 10° N
CARTOSAT-1 3.5 23:18:05 51° SE 23:19:05 74° ENE 23:23:25 10° N
SL-19 R/B 4.0 23:19:50 10° NNE 23:25:06 67° ESE 23:26:47 42° S
ARGOS 4.5 23:25:02 17° SSW 23:28:25 33° W 23:33:17 10° NNW
H-2A R/B 2.7 23:28:03 29° SSW 23:30:14 46° W 23:35:07 10° NNW
Cosmos 2360 Rocket 4.1 23:26:29 10° N 23:30:34 20° NE 23:33:33 14° E
Cosmos 1980 Rocket 2.3 23:26:36 10° NNW 23:32:13 67° WSW 23:34:08 41° S
DELTA 2 DEB (DPAF) 4.5 23:38:29 48° E 23:39:05 52° ENE 23:43:26 10° N
Cosmos 1758 Rocket 3.6 23:41:55 56° E 23:41:57 56° E 23:46:14 10° NNE
Cosmos 1953 2.3 23:38:47 10° N 23:42:52 70° E 23:42:56 70° E
H-2A R/B 2.3 23:42:43 52° SSW 23:43:36 65° WSW 23:48:07 10° NNW
Cosmos 1766 4.3 23:40:44 10° NNW 23:44:20 36° W 23:44:59 33° WSW
BREEZE-M DEB (TANK) 3.6 23:45:57 27° ENE 23:45:57 27° ENE 23:48:27 10° ENE
ISS -0.7 23:42:37 10° NNW 23:44:36 15° N 23:46:36 10° NE
Cosmos 2322 Rocket 2.5 23:39:17 10° NNW 23:44:54 57° ENE 23:46:33 42° ESE
Spot 4 3.8 23:47:40 60° SE 23:48:27 76° ENE 23:53:16 10° N
Lacrosse 5 1.7 23:51:06 63° S 23:51:38 68° SE 23:56:41 10° NE
